| time (UTC) | temp C | wind direction | speed KPH | gust KPH | rain 1hr cm | rain 24hr cm | rain mn cm | humidity % | barometer mb |
| 20260504234504 | 12 | 309 | 27.4 | 38.6 | 0.00 | 0.00 | 0.00 | 46 | 1004.6 |
| 20260504233005 | 12 | 304 | 24.1 | 45.1 | 0.00 | 0.00 | 0.00 | 46 | 1004.6 |
| 20260504231501 | 13 | 360 | 32.2 | 45.1 | 0.00 | 0.00 | 0.00 | 44 | 1004.6 |
| 20260504230100 | 13 | 305 | 29.0 | 43.5 | 0.00 | 0.00 | 0.00 | 44 | 1004.4 |
| 20260504230002 | 13 | 306 | 29.0 | 43.5 | 0.00 | 0.00 | 0.00 | 44 | 1004.4 |
| 20260504224600 | 13 | 304 | 32.2 | 53.1 | 0.00 | 0.00 | 0.00 | 43 | 1004.2 |
| 20260504223058 | 13 | 291 | 33.8 | 53.1 | 0.00 | 0.00 | 0.00 | 44 | 1004.1 |
| 20260504221556 | 13 | 295 | 33.8 | 48.3 | 0.00 | 0.00 | 0.00 | 42 | 1004.0 |
| 20260504220055 | 13 | 298 | 30.6 | 48.3 | 0.00 | 0.00 | 0.00 | 47 | 1003.9 |
| 20260504214556 | 13 | 289 | 29.0 | 48.3 | 0.00 | 0.00 | 0.00 | 47 | 1003.8 |
| 20260504213053 | 14 | 360 | 37.0 | 49.9 | 0.00 | 0.00 | 0.00 | 43 | 1003.6 |
| 20260504211552 | 15 | 360 | 29.0 | 53.1 | 0.00 | 0.00 | 0.00 | 42 | 1003.1 |
| 20260504210105 | 15 | 306 | 32.2 | 49.9 | 0.00 | 0.00 | 0.00 | 40 | 1002.8 |
| 20260504204651 | 16 | 310 | 32.2 | 48.3 | 0.00 | 0.00 | 0.00 | 39 | 1002.8 |
| 20260504203103 | 16 | 310 | 32.2 | 46.7 | 0.00 | 0.00 | 0.00 | 37 | 1002.7 |
| 20260504201548 | 17 | 298 | 35.4 | 51.5 | 0.00 | 0.00 | 0.00 | 35 | 1002.5 |
| 20260504200048 | 17 | 310 | 33.8 | 59.5 | 0.00 | 0.00 | 0.00 | 35 | 1002.4 |
| 20260504194550 | 18 | 306 | 32.2 | 51.5 | 0.00 | 0.00 | 0.00 | 38 | 1002.1 |
| 20260504193049 | 18 | 360 | 30.6 | 48.3 | 0.00 | 0.00 | 0.00 | 38 | 1002.1 |
| 20260504191545 | 18 | 299 | 30.6 | 41.8 | 0.00 | 0.00 | 0.00 | 37 | 1002.0 |
| 20260504190107 | 18 | 360 | 32.2 | 48.3 | 0.00 | 0.00 | 0.00 | 36 | 1002.0 |
| 20260504184544 | 19 | 333 | 35.4 | 43.5 | 0.00 | 0.00 | 0.00 | 36 | 1001.9 |
| 20260504183043 | 19 | 360 | 25.7 | 53.1 | 0.00 | 0.00 | 0.00 | 35 | 1001.9 |
| 20260504181542 | 18 | 312 | 27.4 | 41.8 | 0.00 | 0.00 | 0.00 | 36 | 1001.8 |
| 20260504180041 | 18 | 298 | 29.0 | 49.9 | 0.00 | 0.00 | 0.00 | 36 | 1001.5 |
| 20260504174539 | 18 | 294 | 29.0 | 45.1 | 0.00 | 0.00 | 0.00 | 37 | 1001.3 |
| 20260504173037 | 18 | 340 | 27.4 | 41.8 | 0.00 | 0.00 | 0.00 | 37 | 1001.1 |
| 20260504171535 | 18 | 313 | 20.9 | 38.6 | 0.00 | 0.00 | 0.00 | 39 | 1001.1 |
| 20260504081601 | 9 | 205 | 8.0 | 12.9 | 0.00 | 0.00 | 0.00 | 68 | 1000.8 |
| 20260504044620 | 11 | 215 | 3.2 | 6.4 | 0.00 | 0.00 | 0.00 | 58 | 1003.6 |
| 20260504043019 | 12 | 216 | 3.2 | 6.4 | 0.00 | 0.00 | 0.00 | 57 | 1003.8 |
| 20260504041515 | 12 | 216 | 1.6 | 6.4 | 0.00 | 0.00 | 0.00 | 57 | 1004.0 |
| 20260504040014 | 12 | 216 | 3.2 | 6.4 | 0.00 | 0.00 | 0.00 | 54 | 1004.3 |
| 20260504034512 | 12 | 248 | 3.2 | 11.3 | 0.00 | 0.00 | 0.00 | 53 | 1004.6 |
| 20260504033009 | 13 | 248 | 6.4 | 12.9 | 0.00 | 0.00 | 0.00 | 52 | 1004.8 |
| 20260504031508 | 14 | 248 | 6.4 | 11.3 | 0.00 | 0.00 | 0.00 | 49 | 1005.1 |
| 20260504030007 | 13 | 249 | 3.2 | 8.0 | 0.00 | 0.00 | 0.00 | 50 | 1005.3 |
| 20260504024507 | 15 | 249 | 4.8 | 11.3 | 0.00 | 0.00 | 0.00 | 49 | 1005.2 |
| 20260504023006 | 14 | 248 | 6.4 | 11.3 | 0.00 | 0.00 | 0.00 | 49 | 1005.2 |
| 20260504021505 | 16 | 251 | 8.0 | 11.3 | 0.00 | 0.00 | 0.00 | 45 | 1005.2 |
| 20260504020004 | 16 | 252 | 8.0 | 11.3 | 0.00 | 0.00 | 0.00 | 44 | 1005.2 |
| 20260504014503 | 17 | 264 | 8.0 | 14.5 | 0.00 | 0.00 | 0.00 | 42 | 1005.3 |
| 20260504013007 | 17 | 265 | 9.7 | 14.5 | 0.00 | 0.00 | 0.00 | 40 | 1005.3 |
| 20260504011502 | 18 | 265 | 11.3 | 19.3 | 0.00 | 0.00 | 0.00 | 38 | 1005.4 |
| 20260504010002 | 19 | 271 | 12.9 | 17.7 | 0.00 | 0.00 | 0.00 | 37 | 1005.4 |
| 20260504004501 | 20 | 268 | 11.3 | 17.7 | 0.00 | 0.00 | 0.00 | 35 | 1005.3 |
| 20260504003100 | 20 | 275 | 14.5 | 20.9 | 0.00 | 0.00 | 0.00 | 33 | 1005.3 |
| 20260504001603 | 21 | 257 | 19.3 | 35.4 | 0.00 | 0.00 | 0.00 | 31 | 1005.4 |
| 20260504000100 | 21 | 360 | 16.1 | 29.0 | 0.00 | 0.00 | 0.00 | 33 | 1005.4 |